1487826000.54,42019,10.5,72134.3,-5.31,-6.35,-6.47,0,*5C
1487826001.78,42020,10.5,72128.3,-5.31,-6.35,-6.51,0,*51
1487826003.03,42021,10.5,72128.0,-5.31,-6.27,-6.47,0,*54
1487826004.26,42022,10.5,72148.0,-5.31,-6.35,-6.59,0,*5B
1487826005.49,42023,10.5,72130.3,-5.31,-6.39,-6.59,0,*56
1487826006.72,42024,10.5,72140.3,-5.27,-6.35,-6.47,0,*55
1487826007.92,42025,10.5,72122.5,-5.29,-6.39,-6.59,0,*59
1487826009.15,42026,10.5,72096.0,-5.31,-6.47,-6.59,0,*5A
1487826010.35,42027,10.5,72042.5,-5.29,-6.47,-6.47,0,*5D
1487826011.58,42028,10.5,72038.8,-5.31,-6.39,-6.47,0,*52
1487826012.8,42029,10.5,72082.0,-5.31,-6.39,-6.39,0,*5A
1487826014.02,42030,10.5,72094.5,-5.31,-6.39,-6.47,0,*5B
1487826015.25,42031,10.5,72080.3,-5.31,-6.47,-6.47,0,*53
1487826016.48,42032,10.5,72138.5,-5.31,-6.35,-6.39,0,*5C
1487826017.71,42033,10.5,72158.0,-5.31,-6.35,-6.39,0,*5D
1487826018.96,42034,10.5,72148.8,-5.31,-6.27,-6.39,0,*59
1487826020.2,42035,10.5,72146.0,-5.31,-6.27,-6.39,0,*58
1487826021.41,42036,10.5,72142.3,-5.29,-6.35,-6.47,0,*58
1487826022.64,42037,10.5,72082.0,-5.29,-6.47,-6.63,0,*5A
1487826023.87,42038,10.5,72088.8,-5.31,-6.51,-6.51,0,*5A
1487826025.11,42039,10.5,72078.8,-5.31,-6.35,-6.51,0,*59
1487826026.31,42040,10.5,72088.8,-5.29,-6.39,-6.51,0,*52
1487826027.54,42041,10.5,72104.8,-5.31,-6.39,-6.47,0,*5D
1487826028.78,42042,10.5,72134.0,-5.31,-6.23,-6.39,0,*5C
1487826030.03,42043,10.5,72140.8,-5.31,-6.23,-6.39,0,*5D
1487826031.28,42044,10.5,72152.3,-5.31,-6.27,-6.47,0,*57
1487826032.53,42045,10.5,72164.5,-5.31,-6.27,-6.51,0,*51
1487826033.74,42046,10.5,72172.8,-5.29,-6.35,-6.51,0,*58
1487826034.95,42047,10.5,72188.5,-5.33,-6.39,-6.69,0,*55
1487826036.17,42048,10.5,72184.0,-5.33,-6.43,-6.69,0,*57
1487826037.39,42049,10.5,72150.5,-5.33,-6.43,-6.77,0,*59
1487826038.62,42050,10.5,72142.5,-5.31,-6.51,-6.85,0,*5D
1487826039.87,42051,10.5,72136.3,-5.31,-6.63,-6.85,0,*5D
1487826041.11,42052,10.5,72148.5,-5.31,-6.85,-7.05,0,*5F
1487826042.34,42053,10.5,72166.5,-5.31,-6.85,-7.15,0,*5F
1487826043.56,42054,10.5,72182.8,-5.31,-6.85,-7.19,0,*54
1487826044.77,42055,10.5,72192.3,-5.29,-6.85,-7.19,0,*5C
1487826046.02,42056,10.5,72200.5,-5.31,-6.85,-7.01,0,*5F
1487826047.27,42057,10.5,72202.0,-5.31,-6.89,-6.97,0,*5C
1487826048.5,42058,10.5,72214.3,-5.29,-6.97,-6.89,0,*5A
1487826049.7,42059,10.5,72214.0,-5.29,-6.89,-6.77,0,*55
1487826050.9,42060,10.5,72184.3,-5.29,-6.85,-6.73,0,*57
1487826052.13,42061,10.5,72176.8,-5.31,-6.73,-6.59,0,*5E
1487826053.34,42062,10.56,72132.0,-5.29,-6.59,-6.51,0,*54
1487826054.55,42063,10.5,72122.0,-5.29,-6.51,-6.51,0,*5D
1487826055.77,42064,10.5,72144.0,-5.31,-6.39,-6.47,0,*5A
1487826057.0,42065,10.5,72138.3,-5.31,-6.47,-6.47,0,*52
1487826058.22,42066,10.5,72140.3,-5.31,-6.47,-6.39,0,*58
1487826059.45,42067,10.5,72144.3,-5.31,-6.35,-6.39,0,*5C
1487826060.7,42068,10.5,72138.8,-5.31,-6.27,-6.35,0,*5C
1487826061.93,42069,10.5,72112.5,-5.31,-6.39,-6.47,0,*57
1487826063.13,42070,10.5,72114.0,-5.29,-6.47,-6.59,0,*50
1487826064.36,42071,10.5,72104.5,-5.31,-6.47,-6.51,0,*50
1487826065.58,42072,10.5,72114.8,-5.31,-6.39,-6.39,0,*54
1487826066.81,42073,10.5,72118.3,-5.31,-6.39,-6.47,0,*5C
1487826068.03,42074,10.5,72116.5,-5.31,-6.39,-6.47,0,*5B
1487826069.26,42075,10.5,72124.0,-5.31,-6.47,-6.51,0,*54
1487826070.49,42076,10.5,72130.0,-5.31,-6.35,-6.39,0,*5C
1487826071.69,42077,10.5,72132.8,-5.29,-6.39,-6.47,0,*51
1487826072.91,42078,10.5,72132.5,-5.33,-6.43,-6.43,0,*5C
1487826074.16,42079,10.5,72108.5,-5.31,-6.27,-6.39,0,*50
1487826075.43,42080,10.5,72116.3,-5.31,-6.27,-6.27,0,*59
1487826076.66,42081,10.5,72136.0,-5.31,-6.13,-6.35,0,*5C
1487826077.94,42082,10.5,72098.8,-5.31,-6.23,-6.27,0,*5F
1487826079.19,42083,10.5,72108.8,-5.31,-6.23,-6.35,0,*5D
1487826080.46,42084,10.5,72114.5,-5.31,-6.23,-6.27,0,*59
1487826081.71,42085,10.5,72122.3,-5.29,-6.23,-6.27,0,*51
1487826082.97,42086,10.5,72134.3,-5.31,-6.23,-6.35,0,*58
1487826084.22,42087,10.5,72162.3,-5.31,-6.13,-6.27,0,*59
1487826085.47,42088,10.5,72146.8,-5.31,-6.23,-6.35,0,*56
1487826086.7,42089,10.5,72146.3,-5.31,-6.35,-6.39,0,*5C
1487826087.95,42090,10.5,72158.0,-5.31,-6.23,-6.35,0,*5F
1487826089.2,42091,10.5,72164.0,-5.31,-6.23,-6.39,0,*52
1487826090.45,42092,10.5,72164.5,-5.31,-6.23,-6.47,0,*58
1487826091.68,42093,10.5,72172.5,-5.31,-6.35,-6.51,0,*59
1487826092.89,42094,10.5,72168.3,-5.29,-6.39,-6.59,0,*53
1487826094.14,42095,10.5,72156.8,-5.31,-6.47,-6.63,0,*5B
1487826095.34,42096,10.5,72144.3,-5.29,-6.47,-6.47,0,*57
1487826096.57,42097,10.5,72138.3,-5.31,-6.47,-6.47,0,*5F
1487826097.79,42098,10.5,72148.8,-5.29,-6.27,-6.39,0,*56
1487826099.0,42099,10.5,72144.3,-5.29,-6.35,-6.35,0,*58
1487826100.23,42100,10.5,72136.8,-5.29,-6.27,-6.35,0,*5A
1487826101.46,42101,10.5,72158.3,-5.29,-6.23,-6.35,0,*5F
1487826102.69,42102,10.5,72154.0,-5.29,-6.23,-6.35,0,*5C
1487826103.89,42103,10.5,72162.8,-5.29,-6.13,-6.35,0,*5E
1487826105.17,42104,10.5,72168.5,-5.31,-6.23,-6.27,0,*50
1487826106.42,42105,10.5,72166.0,-5.29,-6.23,-6.27,0,*58
1487826107.67,42106,10.56,72176.8,-5.31,-6.13,-6.23,0,*55
1487826108.92,42107,10.5,72164.3,-5.31,-6.13,-6.27,0,*50
1487826110.15,42108,10.5,72176.8,-5.29,-6.27,-6.35,0,*52
1487826111.37,42109,10.5,72172.3,-5.29,-6.27,-6.35,0,*53
1487826112.62,42110,10.5,72180.5,-5.29,-6.27,-6.27,0,*58
1487826113.82,42111,10.5,72166.5,-5.29,-6.39,-6.35,0,*55
1487826115.07,42112,10.5,72168.8,-5.29,-6.23,-6.27,0,*5E
1487826116.3,42113,10.5,72174.0,-5.29,-6.13,-6.27,0,*5C
1487826117.53,42114,10.5,72172.5,-5.29,-6.13,-6.23,0,*5F
1487826118.78,42115,10.5,72174.3,-5.29,-6.23,-6.27,0,*59
1487826120.0,42116,10.5,72128.3,-5.29,-6.27,-6.39,0,*51
1487826121.23,42117,10.5,72124.5,-5.29,-6.27,-6.35,0,*5C
1487826122.48,42118,10.5,72138.0,-5.31,-6.27,-6.35,0,*5A
1487826123.73,42119,10.5,72132.8,-5.31,-6.23,-6.35,0,*5F
1487826124.93,42120,10.5,72162.0,-5.29,-6.39,-6.47,0,*52
1487826126.14,42121,10.5,72140.0,-5.29,-6.35,-6.39,0,*56
1487826127.36,42122,10.5,72168.0,-5.27,-6.31,-6.47,0,*56
1487826128.58,42123,10.5,72116.0,-5.29,-6.35,-6.51,0,*5A
1487826129.8,42124,10.5,72084.5,-5.29,-6.39,-6.63,0,*50
1487826131.05,42125,10.5,72094.3,-5.31,-6.47,-6.63,0,*51
1487826132.25,42126,10.5,72108.5,-5.29,-6.47,-6.77,0,*5E
1487826133.48,42127,10.5,72128.0,-5.31,-6.47,-6.77,0,*56
1487826134.68,42128,10.5,72130.8,-5.29,-6.59,-6.85,0,*52
1487826135.89,42129,10.5,72156.8,-5.29,-6.59,-6.85,0,*53
1487826137.11,42130,10.5,72166.0,-5.29,-6.63,-6.77,0,*5F
1487826138.34,42131,10.5,72170.5,-5.29,-6.59,-6.63,0,*52
1487826139.55,42132,10.5,72162.5,-5.29,-6.59,-6.59,0,*58
1487826140.75,42133,10.5,72172.0,-5.29,-6.39,-6.47,0,*50
1487826141.97,42134,10.5,72166.5,-5.31,-6.47,-6.39,0,*5E
1487826143.2,42135,10.5,72166.0,-5.31,-6.47,-6.47,0,*56
1487826144.4,42136,10.5,72162.0,-5.29,-6.47,-6.47,0,*5C
1487826145.63,42137,10.5,72174.5,-5.31,-6.35,-6.39,0,*58
1487826146.91,42138,10.5,72170.8,-5.31,-6.27,-6.27,0,*5B
1487826148.11,42139,10.5,72176.0,-5.29,-6.13,-6.13,0,*53
1487826149.36,42140,10.5,72174.0,-5.29,-6.23,-6.27,0,*59
1487826150.61,42141,10.5,72174.5,-5.31,-6.13,-6.27,0,*52
1487826151.84,42142,10.5,72182.3,-5.29,-6.13,-6.23,0,*5C
1487826153.09,42143,10.5,72178.0,-5.29,-6.27,-6.27,0,*5E
1487826154.33,42144,10.5,72178.3,-5.29,-6.27,-6.27,0,*59
1487826155.57,42145,10.5,72178.0,-5.29,-6.35,-6.27,0,*5B
1487826156.79,42146,10.5,72180.0,-5.29,-6.13,-6.23,0,*58
1487826158.02,42147,10.5,72174.3,-5.29,-6.23,-6.35,0,*5D
1487826159.27,42148,10.5,72172.5,-5.29,-6.23,-6.27,0,*51
1487826160.5,42149,10.5,72170.3,-5.29,-6.13,-6.27,0,*53
1487826161.7,42150,10.5,72160.5,-5.29,-6.13,-6.13,0,*5C
1487826162.93,42151,10.5,72162.3,-5.31,-6.13,-6.35,0,*50
1487826164.18,42152,10.5,72178.5,-5.29,-6.23,-6.27,0,*5A
1487826165.41,42153,10.5,72170.5,-5.29,-6.23,-6.35,0,*58
1487826166.64,42154,10.5,72174.5,-5.29,-6.23,-6.39,0,*53
1487826167.84,42155,10.5,72184.0,-5.29,-6.35,-6.39,0,*55
1487826169.07,42156,10.5,72190.8,-5.29,-6.23,-6.39,0,*51
1487826170.28,42157,10.5,72208.0,-5.29,-6.35,-6.47,0,*5E
1487826171.48,42158,10.5,72208.5,-5.29,-6.39,-6.51,0,*5A
1487826172.68,42159,10.5,72208.5,-5.29,-6.39,-6.59,0,*53
1487826173.91,42160,10.5,72220.0,-5.29,-6.27,-6.47,0,*59
1487826175.13,42161,10.5,72206.0,-5.31,-6.47,-6.73,0,*50
1487826176.37,42162,10.5,72206.3,-5.29,-6.51,-6.63,0,*5C
1487826177.58,42163,10.5,72210.5,-5.29,-6.51,-6.59,0,*54
1487826178.8,42164,10.5,72206.5,-5.27,-6.47,-6.47,0,*55
1487826180.03,42165,10.5,72208.8,-5.31,-6.39,-6.35,0,*5F
1487826181.23,42166,10.5,72210.3,-5.29,-6.13,-6.13,0,*59
1487826182.48,42167,10.5,72206.0,-5.31,-6.13,-6.23,0,*52
1487826183.68,42168,10.5,72196.0,-5.29,-6.13,-6.13,0,*57
1487826184.9,42169,10.5,72188.3,-5.31,-6.13,-6.13,0,*5F
1487826186.11,42170,10.5,72200.0,-5.29,-6.13,-6.13,0,*5E
1487826187.31,42171,10.5,72178.5,-5.29,-6.09,-6.13,0,*54
1487826188.56,42172,10.5,72154.3,-5.27,-6.09,-6.19,0,*53
1487826189.82,42173,10.5,72154.5,-5.27,-6.19,-6.31,0,*59
1487826191.04,42174,10.5,72146.8,-5.29,-6.13,-6.23,0,*59
1487826192.27,42175,10.5,72142.0,-5.27,-6.09,-6.09,0,*55
1487826193.49,42176,10.5,72136.3,-5.29,-6.13,-6.23,0,*5B
1487826194.74,42177,10.5,72146.0,-5.29,-6.23,-6.23,0,*59
1487826195.94,42178,10.5,72148.5,-5.29,-6.13,-6.13,0,*56
1487826197.14,42179,10.5,72148.0,-5.29,-6.13,-6.13,0,*57
1487826198.4,42180,10.5,72148.8,-5.27,-6.09,-6.19,0,*5E
1487826199.65,42181,10.5,72154.8,-5.27,-6.23,-6.31,0,*5D
1487826200.9,42182,10.5,72158.3,-5.27,-6.09,-6.23,0,*55
1487826202.18,42183,10.5,72160.8,-5.27,-6.19,-6.19,0,*5C
1487826203.43,42184,10.5,72166.8,-5.27,-6.09,-6.19,0,*5A
1487826204.68,42185,10.5,72168.8,-5.27,-6.09,-6.19,0,*5B
1487826205.96,42186,10.5,72172.5,-5.27,-6.19,-6.19,0,*59
1487826207.21,42187,10.5,72180.0,-5.27,-6.09,-6.23,0,*50
1487826208.46,42188,10.5,72182.0,-5.27,-6.09,-6.19,0,*56
1487826209.69,42189,10.5,72180.0,-5.27,-6.09,-6.09,0,*56
1487826210.94,42190,10.5,72182.3,-5.25,-6.19,-6.19,0,*5C
1487826212.22,42191,10.5,72192.8,-5.27,-6.19,-6.19,0,*5F
1487826213.48,42192,10.5,72202.5,-5.27,-6.09,-6.19,0,*5D
1487826214.75,42193,10.5,72210.8,-5.27,-6.19,-6.23,0,*54
1487826216.0,42194,10.5,72216.3,-5.27,-6.09,-6.19,0,*5B
1487826217.26,42195,10.5,72212.0,-5.27,-6.09,-6.19,0,*5A
1487826218.51,42196,10.5,72218.8,-5.27,-6.19,-6.31,0,*52
1487826219.77,42197,10.5,72212.5,-5.27,-6.19,-6.31,0,*53
1487826221.01,42198,10.5,72212.0,-5.27,-6.23,-6.35,0,*51
1487826222.24,42199,10.5,72206.3,-5.27,-6.09,-6.35,0,*58
1487826223.47,42200,10.5,72206.0,-5.27,-6.09,-6.43,0,*5A
1487826224.68,42201,10.5,72210.8,-5.25,-6.09,-6.31,0,*5C
1487826225.93,42202,10.5,72206.3,-5.27,-6.19,-6.47,0,*5D
1487826227.16,42203,10.5,72196.0,-5.27,-6.09,-6.47,0,*5D
1487826228.38,42204,10.5,72194.5,-5.25,-6.23,-6.55,0,*53
1487826229.64,42205,10.5,72174.0,-5.27,-6.19,-6.47,0,*5A
1487826230.86,42206,10.5,72152.8,-5.27,-6.31,-6.43,0,*57
1487826232.11,42207,10.5,72140.5,-5.27,-6.23,-6.35,0,*54
1487826233.36,42208,10.5,72126.0,-5.27,-6.23,-6.35,0,*5B
1487826234.59,42209,10.5,72124.8,-5.25,-6.19,-6.35,0,*51
1487826235.8,42210,10.5,72136.0,-5.29,-6.35,-6.51,0,*59
1487826237.02,42211,10.5,72152.0,-5.27,-6.31,-6.55,0,*56
1487826238.27,42212,10.5,72150.3,-5.27,-6.23,-6.55,0,*56
1487826239.49,42213,10.5,72166.0,-5.27,-6.31,-6.69,0,*5B
1487826240.71,42214,10.5,72178.3,-5.27,-6.31,-6.69,0,*5C
1487826241.94,42215,10.5,72202.0,-5.27,-6.35,-6.69,0,*59
1487826243.16,42216,10.5,72212.8,-5.27,-6.35,-6.73,0,*51
1487826244.38,42217,10.5,72222.5,-5.27,-6.43,-6.69,0,*5A
1487826245.59,42218,10.5,72226.8,-5.25,-6.35,-6.55,0,*59
1487826246.81,42219,10.5,72228.0,-5.27,-6.31,-6.47,0,*5D
1487826248.04,42220,10.5,72224.5,-5.27,-6.43,-6.55,0,*51
1487826249.24,42221,10.5,72232.0,-5.25,-6.43,-6.47,0,*51
1487826250.47,42222,10.5,72230.0,-5.27,-6.35,-6.43,0,*55
1487826251.7,42223,10.5,72234.5,-5.27,-6.43,-6.35,0,*54
1487826252.92,42224,10.5,72214.3,-5.27,-6.31,-6.35,0,*56
1487826254.13,42225,10.5,72198.5,-5.25,-6.31,-6.35,0,*55
1487826255.33,42226,10.5,72092.8,-5.25,-6.31,-6.43,0,*57
1487826256.56,42227,10.5,72180.5,-5.25,-6.23,-6.43,0,*55
1487826257.78,42228,10.5,72112.5,-5.25,-6.23,-6.31,0,*5F
1487826258.99,42229,10.5,72132.5,-5.25,-6.31,-6.47,0,*5C
1487826260.21,42230,10.5,72162.3,-5.27,-6.43,-6.55,0,*50
1487826261.46,42231,10.5,72196.0,-5.27,-6.23,-6.47,0,*54
1487826262.66,42232,10.5,72216.3,-5.25,-6.31,-6.43,0,*52
1487826263.91,42233,10.5,72210.8,-5.27,-6.23,-6.43,0,*52
1487826265.16,42234,10.5,72216.8,-5.27,-6.23,-6.35,0,*54
1487826266.41,42235,10.5,72224.5,-5.27,-6.23,-6.43,0,*54
1487826267.63,42236,10.5,72212.3,-5.25,-6.23,-6.43,0,*55
1487826268.88,42237,10.5,72210.8,-5.27,-6.23,-6.43,0,*56
1487826270.13,42238,10.5,72206.0,-5.27,-6.23,-6.47,0,*5D
1487826271.34,42239,10.5,72210.8,-5.25,-6.35,-6.47,0,*59
1487826272.56,42240,10.5,72218.8,-5.27,-6.43,-6.59,0,*5B
1487826273.78,42241,10.5,72224.0,-5.27,-6.35,-6.69,0,*58
1487826275.01,42242,10.5,72218.3,-5.27,-6.31,-6.59,0,*5C
1487826276.21,42243,10.5,72224.5,-5.25,-6.31,-6.59,0,*5F
1487826277.43,42244,10.5,72232.0,-5.27,-6.43,-6.69,0,*5C
1487826278.65,42245,10.5,72246.3,-5.27,-6.55,-6.69,0,*5A
1487826279.88,42246,10.5,72250.5,-5.27,-6.47,-6.59,0,*59
1487826281.1,42247,10.5,72244.8,-5.27,-6.55,-6.55,0,*57
1487826282.33,42248,10.5,72226.3,-5.27,-6.47,-6.55,0,*5B
1487826283.55,42249,10.5,72210.8,-5.27,-6.47,-6.55,0,*5A
1487826284.78,42250,10.5,72198.5,-5.27,-6.55,-6.55,0,*51
1487826286.0,42251,10.5,72194.5,-5.27,-6.59,-6.47,0,*5F
1487826287.23,42252,10.5,72184.3,-5.27,-6.47,-6.47,0,*53
1487826288.43,42253,10.5,72168.3,-5.25,-6.55,-6.55,0,*50
1487826289.66,42254,10.5,72154.0,-5.27,-6.55,-6.47,0,*56
1487826290.86,42255,10.5,72154.5,-5.25,-6.43,-6.47,0,*52
1487826292.09,42256,10.5,72166.3,-5.27,-6.35,-6.35,0,*57
1487826293.32,42257,10.5,72184.3,-5.25,-6.23,-6.31,0,*57
1487826294.57,42258,10.5,72184.0,-5.27,-6.23,-6.31,0,*5A
1487826295.77,42259,10.5,72184.5,-5.25,-6.31,-6.31,0,*5A
1487826297.0,42260,10.5,72188.5,-5.25,-6.23,-6.31,0,*53
1487826298.27,42261,10.5,72190.3,-5.27,-6.19,-6.23,0,*5A
1487826299.5,42262,10.5,72206.0,-5.25,-6.09,-6.23,0,*5A
1487826300.75,42263,10.5,72200.5,-5.21,-6.19,-6.19,0,*57
1487826301.98,42264,10.5,72172.8,-5.25,-6.19,-6.31,0,*5E
1487826303.23,42265,10.5,72180.5,-5.25,-6.23,-6.23,0,*55
1487826304.48,42266,10.5,72196.5,-5.25,-6.19,-6.23,0,*5F
1487826305.71,42267,10.5,72190.3,-5.25,-6.09,-6.19,0,*56
1487826306.94,42268,10.5,72186.3,-5.25,-6.09,-6.19,0,*59
1487826308.17,42269,10.5,72188.3,-5.25,-6.09,-6.19,0,*58
1487826309.36,42270,10.5,72220.8,-5.25,-6.05,-6.09,0,*5D
1487826310.59,42271,10.5,72212.0,-5.25,-6.05,-6.19,0,*5D
1487826311.82,42272,10.5,72210.3,-5.25,-6.19,-6.31,0,*59
1487826313.04,42273,10.5,72208.3,-5.25,-6.09,-6.23,0,*5A
1487826314.28,42274,10.5,72194.0,-5.25,-6.19,-6.31,0,*5F
1487826315.53,42275,10.5,72182.8,-5.25,-6.19,-6.23,0,*5D
1487826316.76,42276,10.5,72172.0,-5.25,-6.09,-6.19,0,*56
1487826317.98,42277,10.5,72178.0,-5.21,-6.05,-6.19,0,*5F
1487826319.21,42278,10.5,72196.8,-5.25,-6.09,-6.19,0,*58
1487826320.44,42279,10.5,72218.0,-5.25,-6.09,-6.23,0,*50
1487826321.67,42280,10.5,72210.8,-5.25,-6.09,-6.19,0,*5F
1487826322.89,42281,10.5,72206.5,-5.21,-6.05,-6.19,0,*56
1487826324.11,42282,10.5,72202.5,-5.21,-6.05,-6.27,0,*58
1487826325.36,42283,10.5,72206.5,-5.25,-6.19,-6.23,0,*54
1487826326.56,42284,10.5,72200.3,-5.21,-6.05,-6.13,0,*59
1487826327.79,42285,10.5,72204.0,-5.25,-6.19,-6.31,0,*51
1487826329.02,42286,10.5,72222.0,-5.21,-6.13,-6.19,0,*56
1487826330.25,42287,10.5,72210.8,-5.21,-6.19,-6.31,0,*57
1487826331.48,42288,10.5,72224.3,-5.21,-6.13,-6.19,0,*58
1487826332.67,42289,10.5,72228.3,-5.21,-6.13,-6.13,0,*53
1487826333.9,42290,10.5,72222.5,-5.21,-6.05,-6.19,0,*56
1487826335.12,42291,10.5,72212.0,-5.21,-6.05,-6.19,0,*57
1487826336.34,42292,10.5,72210.3,-5.21,-6.05,-6.27,0,*59
1487826337.57,42293,10.5,72208.3,-5.25,-6.09,-6.23,0,*54
1487826338.77,42294,10.5,72210.0,-5.25,-6.09,-6.09,0,*5B
1487826339.96,42295,10.5,72204.0,-5.21,-6.05,-6.13,0,*59
1487826341.16,42296,10.5,72192.8,-5.21,-6.05,-6.05,0,*5D
1487826342.35,42297,10.5,72192.5,-5.21,-6.01,-6.05,0,*58
1487826343.55,42298,10.5,72204.5,-5.21,-6.01,-6.05,0,*57
1487826344.75,42299,10.5,72206.3,-5.21,-6.01,-6.13,0,*51
1487826345.98,42300,10.5,72218.5,-5.21,-6.13,-6.19,0,*59
1487826347.21,42301,10.5,72220.8,-5.21,-6.13,-6.19,0,*58
1487826348.43,42302,10.5,72220.3,-5.21,-6.05,-6.19,0,*5C
1487826349.62,42303,10.5,72218.0,-5.21,-6.05,-6.05,0,*50
1487826350.82,42304,10.5,72218.5,-5.21,-6.13,-6.13,0,*57
1487826352.08,42305,10.5,72218.5,-5.21,-6.19,-6.27,0,*5B
1487826353.3,42306,10.5,72218.0,-5.21,-6.13,-6.19,0,*5F
1487826354.53,42307,10.5,72210.0,-5.21,-6.05,-6.19,0,*59
1487826355.75,42308,10.5,72200.5,-5.21,-6.13,-6.27,0,*5C
1487826356.98,42309,10.5,72188.3,-5.21,-6.13,-6.19,0,*50
1487826358.23,42310,10.5,72186.3,-5.21,-6.19,-6.27,0,*5F
1487826359.43,42311,10.5,72182.8,-5.21,-6.31,-6.39,0,*5B
1487826360.63,42312,10.5,72184.8,-5.21,-6.31,-6.39,0,*58
1487826361.88,42313,10.5,72198.3,-5.27,-6.23,-6.31,0,*54
1487826363.11,42314,10.5,72184.5,-5.21,-6.13,-6.27,0,*51
1487826364.33,42315,10.5,72166.5,-5.21,-6.27,-6.31,0,*50
1487826365.55,42316,10.5,72194.0,-5.21,-6.27,-6.39,0,*5B
1487826366.8,42317,10.5,72184.3,-5.25,-6.23,-6.23,0,*51
1487826368.03,42318,10.5,72180.3,-5.25,-6.09,-6.19,0,*5F
1487826369.22,42319,10.5,72178.0,-5.21,-6.05,-6.13,0,*5C
1487826370.45,42320,10.5,72174.5,-5.21,-6.05,-6.19,0,*5C
1487826371.68,42321,10.5,72178.8,-5.25,-6.09,-6.19,0,*55
1487826372.88,42322,10.5,72178.3,-5.25,-6.09,-6.09,0,*57
1487826374.07,42323,10.5,72190.5,-5.21,-6.05,-6.13,0,*55
1487826375.27,42324,10.5,72192.8,-5.21,-6.05,-6.13,0,*52
1487826376.46,42325,10.5,72198.0,-5.21,-6.05,-6.13,0,*53
1487826377.69,42326,10.5,72202.3,-5.25,-6.09,-6.19,0,*52
1487826378.92,42327,10.5,72196.8,-5.21,-6.13,-6.27,0,*51
1487826380.14,42328,10.5,72196.0,-5.21,-6.05,-6.19,0,*54
1487826381.34,42329,10.5,72194.5,-5.21,-6.05,-6.13,0,*5F
1487826382.53,42330,10.5,72192.8,-5.21,-6.05,-6.05,0,*50
1487826383.72,42331,10.5,72194.5,-5.21,-6.05,-6.05,0,*51
1487826384.92,42332,10.5,72194.0,-5.21,-6.05,-6.05,0,*52
1487826386.11,42333,10.5,72192.3,-5.21,-6.05,-6.05,0,*53
1487826387.31,42334,10.5,72194.0,-5.21,-5.97,-6.05,0,*5C
1487826388.5,42335,10.5,72192.0,-5.21,-6.01,-6.05,0,*51
1487826389.7,42336,10.5,72194.0,-5.21,-6.01,-6.05,0,*52
1487826390.9,42337,10.5,72192.0,-5.21,-5.97,-6.05,0,*5F
1487826392.09,42338,10.5,72192.3,-5.21,-6.05,-6.13,0,*5F
1487826393.29,42339,10.5,72188.8,-5.21,-6.05,-6.05,0,*59
1487826394.48,42340,10.5,72188.5,-5.21,-6.01,-6.05,0,*53
1487826395.68,42341,10.5,72198.8,-5.21,-6.01,-6.05,0,*52
1487826396.88,42342,10.5,72206.0,-5.21,-6.01,-6.05,0,*51
1487826398.07,42343,10.5,72204.0,-5.21,-6.01,-6.05,0,*50
1487826399.27,42344,10.5,72202.5,-5.21,-6.05,-6.05,0,*53
1487826400.5,42345,10.5,72196.3,-5.21,-6.13,-6.19,0,*58
1487826401.69,42346,10.5,72204.5,-5.21,-6.13,-6.13,0,*51
1487826402.92,42347,10.5,72218.0,-5.21,-6.13,-6.27,0,*57
1487826404.14,42348,10.5,72210.8,-5.21,-6.13,-6.27,0,*58
1487826405.39,42349,10.5,72206.0,-5.21,-6.19,-6.27,0,*53
1487826406.65,42350,10.5,72206.0,-5.19,-6.19,-6.31,0,*57
1487826407.87,42351,10.5,72196.5,-5.21,-6.27,-6.31,0,*50
1487826409.08,42352,10.5,72184.3,-5.21,-6.31,-6.43,0,*51
1487826410.28,42353,10.5,72190.3,-5.21,-6.13,-6.31,0,*55
1487826411.48,42354,10.5,72192.0,-5.21,-6.05,-6.13,0,*55
1487826412.68,42355,10.5,72186.0,-5.25,-6.31,-6.31,0,*57
1487826413.91,42356,10.5,72192.0,-5.21,-6.19,-6.31,0,*5A
1487826415.13,42357,10.5,72178.8,-5.21,-6.27,-6.39,0,*5E
1487826416.36,42358,10.5,72204.0,-5.21,-6.19,-6.31,0,*54
1487826417.59,42359,10.5,72206.5,-5.21,-6.05,-6.19,0,*52
1487826418.84,42360,10.5,72200.3,-5.25,-6.19,-6.23,0,*58
1487826420.09,42361,10.5,72190.0,-5.25,-6.19,-6.23,0,*59
1487826421.31,42362,10.5,72188.0,-5.21,-6.13,-6.27,0,*50
1487826422.56,42363,10.5,72198.0,-5.21,-6.19,-6.27,0,*5B
1487826423.79,42364,10.5,72206.8,-5.25,-6.09,-6.23,0,*5D
1487826425.02,42365,10.5,72208.8,-5.25,-6.23,-6.31,0,*57
1487826426.22,42366,10.5,72208.5,-5.25,-6.31,-6.35,0,*53
1487826427.45,42367,10.5,72196.0,-5.21,-6.19,-6.31,0,*58
1487826428.68,42368,10.5,72190.0,-5.25,-6.23,-6.31,0,*5A
1487826429.9,42369,10.5,72202.0,-5.25,-6.09,-6.23,0,*50
1487826431.15,42370,10.5,72204.3,-5.25,-6.19,-6.23,0,*59
1487826432.38,42371,10.5,72212.8,-5.25,-6.23,-6.31,0,*52
1487826433.63,42372,10.5,72214.0,-5.25,-6.19,-6.23,0,*5B
1487826434.85,42373,10.5,72216.5,-5.25,-6.09,-6.23,0,*5B
1487826436.11,42374,10.5,72220.8,-5.27,-6.19,-6.31,0,*5C
1487826437.33,42375,10.5,72224.5,-5.25,-6.09,-6.23,0,*5D
1487826438.53,42376,10.5,72224.3,-5.25,-6.09,-6.09,0,*56
1487826439.76,42377,10.5,72216.8,-5.25,-6.09,-6.19,0,*56
1487826440.99,42378,10.5,72202.8,-5.21,-6.13,-6.19,0,*56
1487826442.22,42379,10.5,72198.0,-5.21,-6.13,-6.19,0,*57
1487826443.44,42380,10.5,72192.3,-5.21,-6.05,-6.19,0,*56
1487826444.64,42381,10.5,72202.8,-5.21,-6.13,-6.13,0,*5A
1487826445.83,42382,10.5,72210.5,-5.21,-6.05,-6.05,0,*59
1487826447.03,42383,10.5,72216.5,-5.21,-6.05,-6.13,0,*5F
1487826448.22,42384,10.5,72212.5,-5.21,-6.05,-6.13,0,*58
1487826449.47,42385,10.5,72208.3,-5.25,-6.19,-6.23,0,*53
1487826450.7,42386,10.5,72210.5,-5.25,-6.09,-6.19,0,*58
1487826451.9,42387,10.56,72212.0,-5.21,-6.05,-6.05,0,*5C
1487826453.1,42388,10.5,72208.8,-5.21,-6.13,-6.13,0,*53
1487826454.32,42389,10.5,72198.3,-5.21,-6.13,-6.19,0,*58
1487826455.55,42390,10.5,72198.5,-5.21,-6.13,-6.19,0,*50
1487826456.78,42391,10.5,72200.8,-5.21,-6.13,-6.19,0,*51
1487826458.03,42392,10.5,72202.3,-5.21,-6.27,-6.27,0,*58
1487826459.28,42393,10.5,72198.8,-5.21,-6.19,-6.19,0,*59
1487826460.51,42394,10.5,72198.5,-5.21,-6.13,-6.19,0,*54
1487826461.74,42395,10.5,72202.8,-5.25,-6.23,-6.31,0,*58
1487826462.94,42396,10.5,72208.5,-5.25,-6.09,-6.31,0,*53
1487826464.17,42397,10.5,72214.0,-5.25,-6.09,-6.23,0,*51
1487826465.36,42398,10.5,72218.3,-5.21,-6.05,-6.13,0,*55
1487826466.56,42399,10.5,72216.8,-5.21,-6.05,-6.13,0,*54
1487826467.75,42400,10.5,72216.3,-5.21,-6.05,-6.13,0,*53
1487826468.95,42401,10.5,72216.3,-5.21,-6.13,-6.13,0,*55
1487826470.15,42402,10.5,72214.3,-5.21,-6.13,-6.13,0,*56
1487826471.34,42403,10.5,72218.3,-5.21,-6.05,-6.13,0,*50
1487826472.6,42404,10.5,72220.0,-5.25,-6.19,-6.19,0,*54
1487826473.8,42405,10.5,72220.3,-5.25,-6.09,-6.09,0,*55
1487826474.99,42406,10.5,72224.3,-5.21,-6.05,-6.13,0,*55
1487826476.22,42407,10.5,72216.5,-5.21,-6.13,-6.19,0,*59
1487826477.45,42408,10.5,72214.0,-5.21,-6.05,-6.19,0,*51
1487826478.69,42409,10.5,72212.3,-5.19,-6.05,-6.19,0,*5B
1487826479.89,42410,10.5,72204.0,-5.21,-6.05,-6.13,0,*52
1487826481.08,42411,10.5,72204.5,-5.21,-6.05,-6.05,0,*54
1487826482.28,42412,10.5,72210.8,-5.25,-6.05,-6.09,0,*5F
1487826483.47,42413,10.5,72210.0,-5.21,-5.97,-6.05,0,*5E
1487826484.67,42414,10.5,72210.5,-5.21,-6.01,-6.05,0,*55
1487826485.87,42415,10.5,72216.5,-5.21,-6.01,-6.05,0,*54
1487826487.07,42416,10.5,72222.3,-5.21,-6.01,-6.05,0,*57
1487826488.26,42417,10.5,72224.3,-5.21,-6.01,-6.05,0,*56
1487826489.46,42418,10.5,72232.5,-5.21,-6.01,-6.05,0,*59
1487826490.66,42419,10.5,72238.0,-5.21,-6.01,-6.05,0,*58
1487826491.88,42420,10.5,72244.3,-5.19,-6.01,-6.05,0,*59
1487826493.1,42421,10.5,72252.5,-5.19,-6.01,-6.05,0,*58
1487826494.32,42422,10.5,72260.5,-5.21,-6.13,-6.27,0,*53
1487826495.55,42423,10.5,72262.8,-5.21,-6.19,-6.39,0,*57
1487826496.75,42424,10.5,72256.3,-5.21,-6.31,-6.31,0,*52
1487826497.95,42425,10.5,72252.3,-5.21,-6.31,-6.39,0,*5B
1487826499.18,42426,10.5,72236.3,-5.21,-6.19,-6.31,0,*5A
1487826500.41,42427,10.5,72226.0,-5.21,-6.19,-6.31,0,*5B
1487826501.63,42428,10.5,72228.5,-5.21,-6.27,-6.39,0,*51
1487826502.83,42429,10.5,72224.5,-5.21,-6.39,-6.51,0,*51
1487826504.04,42430,10.5,72224.5,-5.25,-6.43,-6.55,0,*54
1487826505.24,42431,10.5,72178.0,-5.25,-6.35,-6.47,0,*57
1487826506.45,42432,10.5,72182.3,-5.25,-6.43,-6.55,0,*56
1487826507.65,42433,10.5,72180.3,-5.25,-6.35,-6.47,0,*55
1487826508.88,42434,10.5,72136.0,-5.25,-6.23,-6.35,0,*50
1487826510.08,42435,10.5,72142.8,-5.25,-6.35,-6.43,0,*57
1487826511.31,42436,10.5,72092.3,-5.25,-6.23,-6.35,0,*52
1487826512.54,42437,10.5,72056.0,-5.27,-6.35,-6.43,0,*57
1487826513.74,42438,10.5,72108.8,-5.25,-6.43,-6.47,0,*5F
1487826514.99,42439,10.5,72028.0,-5.21,-6.19,-6.19,0,*5E